N636CX KUDD-KEMT

Flight info

Callsign N636CX
Flight time 0h 50m
Altitude 10000
Route PSP V388 RNDAL V363 POM [PSPP5 JM120PQ100]
Aircraft BE56/L-VGD/C

Departure

Time 2026-04-13 01:14
Airport Bermuda Dunes Airport (KUDD)

Arrival

Time 2026-04-13 02:04
Airport San Gabriel Valley Airport (KEMT)
Time Latitude Longitude Altitude Speed Heading
2026-04-13 01:08 33.74573 -116.26915 61 ft 0 kts 27°
2026-04-13 01:12 33.74579 -116.26912 61 ft 4 kts 27°
2026-04-13 01:12 33.74609 -116.26907 61 ft 3 kts 326°
2026-04-13 01:13 33.74624 -116.26937 61 ft 26 kts 297°
2026-04-13 01:13 33.74829 -116.27445 71 ft 96 kts 298°
2026-04-13 01:13 33.75127 -116.28234 336 ft 113 kts 296°
2026-04-13 01:13 33.75431 -116.29185 523 ft 135 kts 292°
2026-04-13 01:14 33.75731 -116.30308 768 ft 145 kts 287°
2026-04-13 01:14 33.75518 -116.31489 1071 ft 158 kts 236°
2026-04-13 01:14 33.74538 -116.32137 1338 ft 170 kts 195°
2026-04-13 01:14 33.73400 -116.32129 1792 ft 163 kts 163°
2026-04-13 01:15 33.72592 -116.31192 2027 ft 171 kts 110°
2026-04-13 01:15 33.72431 -116.29746 2209 ft 177 kts 92°
2026-04-13 01:15 33.72341 -116.28265 2399 ft 183 kts 100°
2026-04-13 01:15 33.72125 -116.26763 2615 ft 183 kts 101°
2026-04-13 01:16 33.71625 -116.25388 2826 ft 181 kts 131°
2026-04-13 01:16 33.70823 -116.24225 3048 ft 180 kts 134°
2026-04-13 01:16 33.69985 -116.23097 3263 ft 180 kts 136°
2026-04-13 01:16 33.69135 -116.21984 3478 ft 180 kts 136°
2026-04-13 01:17 33.68290 -116.20867 3691 ft 181 kts 136°
2026-04-13 01:17 33.67335 -116.19915 3902 ft 178 kts 150°
2026-04-13 01:17 33.66250 -116.19222 4114 ft 176 kts 158°
2026-04-13 01:17 33.65152 -116.18571 4332 ft 177 kts 155°
2026-04-13 01:18 33.64109 -116.17757 4547 ft 179 kts 143°
2026-04-13 01:18 33.63209 -116.16721 4743 ft 180 kts 139°
2026-04-13 01:18 33.62334 -116.15651 4949 ft 181 kts 134°
2026-04-13 01:18 33.61542 -116.14479 5153 ft 181 kts 134°
2026-04-13 01:19 33.60734 -116.13313 5359 ft 180 kts 134°
2026-04-13 01:19 33.59914 -116.12176 5552 ft 178 kts 145°
2026-04-13 01:19 33.58803 -116.11735 5723 ft 167 kts 189°
2026-04-13 01:19 33.57824 -116.12358 5895 ft 160 kts 234°
2026-04-13 01:20 33.57580 -116.13602 6069 ft 160 kts 279°
2026-04-13 01:20 33.58174 -116.14742 6262 ft 165 kts 310°
2026-04-13 01:20 33.59018 -116.15668 6461 ft 165 kts 315°
2026-04-13 01:20 33.59903 -116.16566 6662 ft 164 kts 314°
2026-04-13 01:21 33.60762 -116.17438 6851 ft 163 kts 314°
2026-04-13 01:21 33.61640 -116.18308 7040 ft 163 kts 315°
2026-04-13 01:21 33.62526 -116.19165 7236 ft 163 kts 315°
2026-04-13 01:21 33.63407 -116.20017 7426 ft 163 kts 315°
2026-04-13 01:22 33.64289 -116.20875 7611 ft 163 kts 315°
2026-04-13 01:22 33.65168 -116.21727 7777 ft 164 kts 316°
2026-04-13 01:22 33.66057 -116.22588 7959 ft 164 kts 316°
2026-04-13 01:22 33.66952 -116.23456 8133 ft 165 kts 315°
2026-04-13 01:23 33.67851 -116.24328 8304 ft 165 kts 315°
2026-04-13 01:23 33.68734 -116.25187 8503 ft 165 kts 314°
2026-04-13 01:23 33.69628 -116.26053 8693 ft 165 kts 315°
2026-04-13 01:23 33.70522 -116.26920 8867 ft 164 kts 314°
2026-04-13 01:24 33.71412 -116.27787 9034 ft 164 kts 314°
2026-04-13 01:24 33.72296 -116.28645 9209 ft 164 kts 314°
2026-04-13 01:24 33.73182 -116.29504 9392 ft 163 kts 314°
2026-04-13 01:24 33.74070 -116.30369 9593 ft 164 kts 314°
2026-04-13 01:25 33.74952 -116.31226 9764 ft 164 kts 314°
2026-04-13 01:25 33.75840 -116.32092 9937 ft 166 kts 314°
2026-04-13 01:25 33.76767 -116.32994 9907 ft 177 kts 314°
2026-04-13 01:25 33.77740 -116.33940 9904 ft 183 kts 314°
2026-04-13 01:26 33.78753 -116.34929 9906 ft 187 kts 314°
2026-04-13 01:26 33.79761 -116.35906 9899 ft 189 kts 315°
2026-04-13 01:26 33.80790 -116.36906 9919 ft 190 kts 315°
2026-04-13 01:26 33.81826 -116.37917 9911 ft 192 kts 315°
2026-04-13 01:27 33.82870 -116.38933 9910 ft 192 kts 316°
2026-04-13 01:27 33.83902 -116.39939 9912 ft 193 kts 315°
2026-04-13 01:27 33.84951 -116.40962 9910 ft 193 kts 315°
2026-04-13 01:27 33.85992 -116.41976 9909 ft 193 kts 315°
2026-04-13 01:28 33.87043 -116.42997 9909 ft 193 kts 315°
2026-04-13 01:28 33.88092 -116.44012 9909 ft 193 kts 315°
2026-04-13 01:28 33.89058 -116.45108 9894 ft 186 kts 295°
2026-04-13 01:28 33.89276 -116.46577 9910 ft 178 kts 267°
2026-04-13 01:29 33.89195 -116.48064 9908 ft 178 kts 264°
2026-04-13 01:29 33.89097 -116.49564 9906 ft 179 kts 268°
2026-04-13 01:29 33.89273 -116.51043 9912 ft 181 kts 279°
2026-04-13 01:29 33.89533 -116.52528 9910 ft 182 kts 279°
2026-04-13 01:30 33.89797 -116.54021 9909 ft 182 kts 279°
2026-04-13 01:30 33.90063 -116.55515 9911 ft 183 kts 279°
2026-04-13 01:30 33.90331 -116.57013 9911 ft 183 kts 278°
2026-04-13 01:30 33.90652 -116.58508 9911 ft 185 kts 282°
2026-04-13 01:31 33.91009 -116.59998 9910 ft 185 kts 282°
2026-04-13 01:31 33.91363 -116.61486 9907 ft 185 kts 282°
2026-04-13 01:31 33.91717 -116.62974 9910 ft 185 kts 282°
2026-04-13 01:31 33.92073 -116.64476 9910 ft 185 kts 282°
2026-04-13 01:32 33.92419 -116.65964 9915 ft 185 kts 281°
2026-04-13 01:32 33.92759 -116.67461 9914 ft 185 kts 281°
2026-04-13 01:32 33.93099 -116.68962 9964 ft 185 kts 281°
2026-04-13 01:32 33.93424 -116.70468 9971 ft 187 kts 274°
2026-04-13 01:33 33.93461 -116.71996 9921 ft 184 kts 272°
2026-04-13 01:33 33.93582 -116.73531 9915 ft 182 kts 272°
2026-04-13 01:33 33.93703 -116.75040 9979 ft 182 kts 272°
2026-04-13 01:33 33.93826 -116.76566 9960 ft 186 kts 272°
2026-04-13 01:34 33.93944 -116.78119 9888 ft 182 kts 269°
2026-04-13 01:34 33.93921 -116.79646 9933 ft 182 kts 265°
2026-04-13 01:34 33.93877 -116.81145 9942 ft 182 kts 265°
2026-04-13 01:34 33.93831 -116.82687 10028 ft 185 kts 264°
2026-04-13 01:35 33.93785 -116.84245 9982 ft 188 kts 265°
2026-04-13 01:35 33.93746 -116.85806 9944 ft 186 kts 265°
2026-04-13 01:35 33.93706 -116.87363 9978 ft 185 kts 265°
2026-04-13 01:35 33.93664 -116.88909 9961 ft 185 kts 265°
2026-04-13 01:36 33.93625 -116.90450 9956 ft 183 kts 265°
2026-04-13 01:36 33.93586 -116.91969 9969 ft 181 kts 264°
2026-04-13 01:36 33.93545 -116.93472 9965 ft 180 kts 265°
2026-04-13 01:36 33.93503 -116.94978 9995 ft 181 kts 265°
2026-04-13 01:37 33.93464 -116.96493 9995 ft 181 kts 265°
2026-04-13 01:37 33.93423 -116.98013 9977 ft 182 kts 265°
2026-04-13 01:37 33.93382 -116.99554 9984 ft 183 kts 264°
2026-04-13 01:37 33.93340 -117.01077 10001 ft 183 kts 264°
2026-04-13 01:38 33.93298 -117.02607 9996 ft 184 kts 264°
2026-04-13 01:38 33.93255 -117.04157 9995 ft 184 kts 265°
2026-04-13 01:38 33.93213 -117.05701 9994 ft 184 kts 264°
2026-04-13 01:38 33.93171 -117.07240 9994 ft 184 kts 264°
2026-04-13 01:39 33.93128 -117.08778 9997 ft 184 kts 265°
2026-04-13 01:39 33.93087 -117.10307 9995 ft 184 kts 264°
2026-04-13 01:39 33.93044 -117.11837 9995 ft 183 kts 265°
2026-04-13 01:39 33.93001 -117.13378 9998 ft 183 kts 264°
2026-04-13 01:40 33.92959 -117.14895 10002 ft 182 kts 264°
2026-04-13 01:40 33.92915 -117.16431 10003 ft 182 kts 265°
2026-04-13 01:40 33.92872 -117.17950 10003 ft 182 kts 265°
2026-04-13 01:40 33.92828 -117.19487 10003 ft 182 kts 265°
2026-04-13 01:41 33.92785 -117.21015 10005 ft 182 kts 265°
2026-04-13 01:41 33.92743 -117.22521 10005 ft 182 kts 265°
2026-04-13 01:41 33.92699 -117.24054 10003 ft 182 kts 265°
2026-04-13 01:41 33.92656 -117.25575 10003 ft 183 kts 265°
2026-04-13 01:42 33.92612 -117.27116 10003 ft 182 kts 265°
2026-04-13 01:42 33.92568 -117.28635 10004 ft 182 kts 264°
2026-04-13 01:42 33.92524 -117.30160 10005 ft 182 kts 264°
2026-04-13 01:43 33.92388 -117.34751 10006 ft 183 kts 264°
2026-04-13 01:43 33.92343 -117.36280 10006 ft 183 kts 265°
2026-04-13 01:43 33.92298 -117.37796 10008 ft 182 kts 265°
2026-04-13 01:44 33.92253 -117.39321 10005 ft 182 kts 265°
2026-04-13 01:44 33.92207 -117.40850 10006 ft 182 kts 265°
2026-04-13 01:44 33.92161 -117.42370 10007 ft 182 kts 265°
2026-04-13 01:44 33.92114 -117.43885 10007 ft 182 kts 265°
2026-04-13 01:45 33.92047 -117.45409 10007 ft 182 kts 264°
2026-04-13 01:45 33.91978 -117.46941 10006 ft 183 kts 264°
2026-04-13 01:45 33.91911 -117.48469 10006 ft 183 kts 264°
2026-04-13 01:45 33.91845 -117.50072 9632 ft 197 kts 264°
2026-04-13 01:46 33.91790 -117.51542 10051 ft 177 kts 265°
2026-04-13 01:46 33.91718 -117.53198 9000 ft 221 kts 265°
2026-04-13 01:46 33.91891 -117.55055 8409 ft 228 kts 278°
2026-04-13 01:46 33.92209 -117.56876 8006 ft 218 kts 279°
2026-04-13 01:47 33.92633 -117.58603 7594 ft 211 kts 285°
2026-04-13 01:47 33.93074 -117.60270 7188 ft 207 kts 285°
2026-04-13 01:47 33.93482 -117.61905 6787 ft 204 kts 284°
2026-04-13 01:47 33.93870 -117.63535 6385 ft 203 kts 283°
2026-04-13 01:48 33.94242 -117.65155 5989 ft 202 kts 283°
2026-04-13 01:48 33.94587 -117.66763 6012 ft 194 kts 282°
2026-04-13 01:48 33.94918 -117.68333 6026 ft 193 kts 282°
2026-04-13 01:48 33.95244 -117.69889 6029 ft 193 kts 282°
2026-04-13 01:49 33.95570 -117.71462 6028 ft 193 kts 281°
2026-04-13 01:49 33.95889 -117.73047 6027 ft 193 kts 281°
2026-04-13 01:49 33.96203 -117.74624 6025 ft 193 kts 281°
2026-04-13 01:49 33.96516 -117.76180 6024 ft 193 kts 281°
2026-04-13 01:50 33.96831 -117.77758 6023 ft 193 kts 283°
2026-04-13 01:50 33.97651 -117.79013 6017 ft 201 kts 327°
2026-04-13 01:50 33.99042 -117.79286 6028 ft 207 kts 359°
2026-04-13 01:50 34.00476 -117.79161 6025 ft 209 kts
2026-04-13 01:51 34.01940 -117.79021 6024 ft 209 kts
2026-04-13 01:51 34.03392 -117.79010 6005 ft 206 kts 341°
2026-04-13 01:51 34.04476 -117.80008 6013 ft 196 kts 297°
2026-04-13 01:51 34.04905 -117.81535 6026 ft 192 kts 282°
2026-04-13 01:52 34.05226 -117.83103 6026 ft 192 kts 281°
2026-04-13 01:52 34.05544 -117.84659 6025 ft 192 kts 281°
2026-04-13 01:52 34.05865 -117.86235 6024 ft 192 kts 281°
2026-04-13 01:52 34.06039 -117.87809 6009 ft 191 kts 271°
2026-04-13 01:53 34.06092 -117.89425 6015 ft 191 kts 270°
2026-04-13 01:53 34.06137 -117.91021 6008 ft 191 kts 270°
2026-04-13 01:53 34.06180 -117.92622 6012 ft 191 kts 270°
2026-04-13 01:53 34.06219 -117.94229 6012 ft 191 kts 270°
2026-04-13 01:54 34.06256 -117.95830 6008 ft 191 kts 270°
2026-04-13 01:54 34.06296 -117.97418 6004 ft 191 kts 270°
2026-04-13 01:54 34.06342 -117.99028 6001 ft 191 kts 270°
2026-04-13 01:54 34.06391 -118.00622 6004 ft 191 kts 270°
2026-04-13 01:55 34.06440 -118.02216 6004 ft 191 kts 270°
2026-04-13 01:55 34.06491 -118.03821 5953 ft 194 kts 270°
2026-04-13 01:55 34.06544 -118.05467 5800 ft 199 kts 270°
2026-04-13 01:55 34.06598 -118.07160 5637 ft 202 kts 270°
2026-04-13 01:56 34.06646 -118.08845 5484 ft 203 kts 270°
2026-04-13 01:56 34.06692 -118.10554 5335 ft 204 kts 271°
2026-04-13 01:56 34.06730 -118.12267 5185 ft 204 kts 270°
2026-04-13 01:56 34.06764 -118.13969 5037 ft 205 kts 270°
2026-04-13 01:57 34.06792 -118.15666 4995 ft 200 kts 270°
2026-04-13 01:57 34.06820 -118.17342 4996 ft 196 kts 270°
2026-04-13 01:57 34.06851 -118.18971 4997 ft 193 kts 270°
2026-04-13 01:57 34.06883 -118.20582 4997 ft 193 kts 270°
2026-04-13 01:58 34.06926 -118.22195 4995 ft 193 kts 275°
2026-04-13 01:58 34.07601 -118.23566 4995 ft 199 kts 320°
2026-04-13 01:58 34.08946 -118.23959 4996 ft 208 kts
2026-04-13 01:58 34.10312 -118.23388 5001 ft 210 kts 21°
2026-04-13 01:59 34.11591 -118.22543 4982 ft 213 kts 43°
2026-04-13 01:59 34.12401 -118.21038 4997 ft 214 kts 62°
2026-04-13 01:59 34.12680 -118.19302 4900 ft 217 kts 90°
2026-04-13 01:59 34.12585 -118.17487 4719 ft 218 kts 97°
2026-04-13 02:00 34.12258 -118.15704 4538 ft 217 kts 110°
2026-04-13 02:00 34.11749 -118.13998 4351 ft 216 kts 112°
2026-04-13 02:00 34.11235 -118.12299 4129 ft 213 kts 111°
2026-04-13 02:00 34.10737 -118.10630 3901 ft 209 kts 111°
2026-04-13 02:01 34.10259 -118.09031 3653 ft 199 kts 111°
2026-04-13 02:01 34.09797 -118.07486 3397 ft 193 kts 111°
2026-04-13 02:01 34.09343 -118.05971 3137 ft 190 kts 111°
2026-04-13 02:01 34.08904 -118.04501 2871 ft 187 kts 112°
2026-04-13 02:02 34.08340 -118.03102 2425 ft 186 kts 132°
2026-04-13 02:02 34.07263 -118.02358 2028 ft 175 kts 173°
2026-04-13 02:02 34.06080 -118.02509 1542 ft 173 kts 194°
2026-04-13 02:02 34.05282 -118.03378 1384 ft 155 kts 259°
2026-04-13 02:03 34.05732 -118.04377 1210 ft 141 kts 325°
2026-04-13 02:03 34.06665 -118.04555 797 ft 135 kts 13°
2026-04-13 02:03 34.07462 -118.04137 477 ft 117 kts 23°
2026-04-13 02:03 34.08133 -118.03754 301 ft 97 kts 24°
2026-04-13 02:04 34.08550 -118.03496 287 ft 9 kts 295°
2026-04-13 02:04 34.08551 -118.03495 287 ft 0 kts 261°
2026-04-13 02:04 34.08563 -118.03503 287 ft 5 kts
2026-04-13 02:04 34.08655 -118.03457 288 ft 21 kts 25°
2026-04-13 02:05 34.08796 -118.03374 290 ft 11 kts 28°
2026-04-13 02:05 34.08822 -118.03317 291 ft 6 kts 122°
2026-04-13 02:05 34.08817 -118.03311 292 ft 0 kts 141°